COSMOS 1275 DEB, 14357

Orbit data source: Space-Track

COSMOS 1275 DEB, 14357 is space debris in LEO originally from a launch on Thu, 04 Jun 1981 UTC launched from the Plesetsk Missile And Space Complex (PKMTR). Debris objects in space refer to the collection of defunct objects orbiting the Earth. Examples of debris include non-operational satellites, rocket bodies, and fragments generated from explosions, collisions, or faulty payload assembly.

Loading next visibility...
Identifier
14357, 1981-053HQ
Orbit
LEO
Country
Flag of CISCIS
Related business
Manufacturer
Unknown
Mission
Spacecraft
Bus & Motor
Unknown
Mass
Unknown
Launch date (UTC)
1981-06-04 (45 years ago)
Launch vehicle
Unknown
Launch site
Plesetsk Missile And Space Complex (PKMTR)
Object type
Payload
Rocket body
Debris
Shape & HBR
Unknown shape, 0.1 m
Radar Cross Section
Small (<0.1 m²)

Expand to show TLE details & history
Last TLE update: 12 hours ago

TLE from 12 hours ago
0 COSMOS 1275 DEB
1 14357U 81053HQ  26105.07320894  .00001246  00000-0  60218-3 0  9997
2 14357  82.8464  41.8161 0037456 222.3263 150.5704 14.17530438194844
Epoch: 2026-04-15T01:45Z
TLE epoch observation values (Epoch: 2026-04-15T01:45:25.252Z)
Latitude
12.96548°
Longitude
173.86766°
Altitude
859.477 km
Speed
7.412 km/s
True Right ascension
02h 53m 51s
True Declination
12° 53' 30"
Sunlit
Object was in daylight at epoch
Visualization orbit readout
Latitude
Unknown
Longitude
Unknown
Altitude
Unknown
Speed
Unknown
Apparent Right ascension
Unknown
Apparent Declination
Unknown
Sunlit
N/A
Visualization observer readout
Local Sidereal Time
20:29:16
Azimuth
Unknown
Elevation
Unknown
Doppler factor
Unknown
Orbital elements
Apogee altitude
857.812 km
Perigee altitude
803.809 km
Semi-major axis
7,208.948 km
Eccentricity
0.00375
Inclination
82.8464°
RAAN
41.8161°
Arg. of periapsis
222.3263°
True anomaly
150.78044°
Mean anomaly
150.5704°
Eccentric anomaly
150.6755°
Mean motion
3.54597 °/min
Orbital period
101.52 mins
BSTAR
0.00060218
Loading maneuver chart data...
Computing Atmospheric mass density...
Loading historical data...
Loading historical data...
Loading historical data...
Loading historical data...
Loading historical data...
Loading historical data...
Loading historical data...

Documentation

Showing up to 5 results
|